AC4VM Weather Reports


Display with metric or nautical units.
time (UTC)temp
F
wind
direction
speed
MPH
gust
MPH
rain 1hr
in
rain 24hr
in
rain mn
in
humidity
%
barometer
mb
20260831044526 71 277 1.0 2.0 0.00 0.00 0.00 91 1017.4
20260831043023 72 277 0.0 1.0 0.00 0.00 0.00 90 1017.4
20260831041518 72 277 0.0 1.0 0.00 0.00 0.00 91 1017.3
20260831040014 72 277 0.0 1.0 0.00 0.00 0.00 90 1017.3
20260831034513 72 277 1.0 2.0 0.00 0.00 0.00 88 1017.4
20260831033019 73 277 1.0 2.0 0.00 0.00 0.00 89 1017.3
20260831031511 73 277 0.0 2.0 0.00 0.00 0.00 87 1017.3
20260831030012 73 277 0.0 1.0 0.00 0.00 0.00 88 1017.3
20260831024511 74 277 0.0 2.0 0.00 0.00 0.00 86 1017.3
20260831023011 74 277 1.0 3.0 0.00 0.00 0.00 86 1017.4
20260831021514 74 277 0.0 0.0 0.00 0.00 0.00 85 1017.3
20260831020009 75 277 0.0 0.0 0.00 0.00 0.00 84 1017.2
20260831014511 76 277 0.0 0.0 0.00 0.00 0.00 81 1017.1
20260831013008 77 45 0.0 1.0 0.00 0.00 0.00 80 1016.9
20260831011519 77 36 2.0 4.0 0.00 0.00 0.00 81 1016.8
20260831010007 77 262 2.0 3.0 0.00 0.00 0.00 80 1016.6
20260831004507 78 268 0.0 2.0 0.00 0.00 0.00 78 1016.4
20260831003012 79 273 0.0 1.0 0.00 0.00 0.00 76 1016.1
20260831001506 81 273 0.0 1.0 0.00 0.00 0.00 73 1016.1
20260831000004 83 273 0.0 1.0 0.00 0.00 0.00 68 1016.4
20260830234517 85 273 0.0 2.0 0.00 0.00 0.00 63 1016.1
20260830233005 85 100 0.0 1.0 0.00 0.00 0.00 58 1016.2
20260830231508 86 100 0.0 1.0 0.00 0.00 0.00 56 1016.0
20260830230004 86 100 0.0 1.0 0.00 0.00 0.00 55 1015.9
20260830224502 86 100 0.0 2.0 0.00 0.00 0.00 54 1015.8
20260830223003 87 108 0.0 4.0 0.00 0.00 0.00 55 1016.0
20260830221601 87 245 1.0 6.0 0.00 0.00 0.00 53 1015.8
20260830214603 88 82 1.0 4.0 0.00 0.00 0.00 50 1016.1
20260830213057 88 105 1.0 4.0 0.00 0.00 0.00 51 1016.1
20260830211556 88 82 1.0 3.0 0.00 0.00 0.00 53 1016.1
20260830210057 89 276 1.0 3.0 0.00 0.00 0.00 54 1016.1
20260830204555 89 69 1.0 6.0 0.00 0.00 0.00 52 1016.3
20260830203053 89 119 0.0 5.0 0.00 0.00 0.00 51 1016.3
20260830201552 89 82 1.0 4.0 0.00 0.00 0.00 52 1016.6
20260830200049 90 148 1.0 3.0 0.00 0.00 0.00 57 1016.8
20260830194601 90 347 2.0 6.0 0.00 0.00 0.00 53 1017.1
20260830193046 89 102 2.0 7.0 0.00 0.00 0.00 53 1017.2
20260830191544 89 86 1.0 6.0 0.00 0.00 0.00 58 1017.5
20260830190042 88 245 3.0 5.0 0.00 0.00 0.00 57 1017.8
20260830184543 88 241 2.0 4.0 0.00 0.00 0.00 53 1018.1
20260830183040 88 77 3.0 7.0 0.00 0.00 0.00 54 1018.3
20260830181538 89 116 3.0 10.0 0.00 0.00 0.00 58 1018.5
20260830180036 88 105 0.0 5.0 0.00 0.00 0.00 54 1018.8
20260830174552 87 239 1.0 8.0 0.00 0.00 0.00 61 1019.0
20260830173036 87 99 4.0 9.0 0.00 0.00 0.00 58 1019.0
20260830171531 87 360 2.0 8.0 0.00 0.00 0.00 61 1019.2
20260830170031 86 90 1.0 6.0 0.00 0.00 0.00 60 1019.5
20260830164530 86 233 1.0 4.0 0.00 0.00 0.00 67 1019.6
20260830163030 85 145 1.0 4.0 0.00 0.00 0.00 67 1019.8
20260830161524 84 84 1.0 6.0 0.00 0.00 0.00 66 1019.9
20260830160025 84 257 1.0 5.0 0.00 0.00 0.00 68 1020.0
20260830154520 83 230 1.0 8.0 0.00 0.00 0.00 70 1020.1
20260830153030 83 281 0.0 5.0 0.00 0.00 0.00 73 1020.1
20260830151531 82 137 2.0 4.0 0.00 0.00 0.00 73 1020.1
20260830150017 81 108 2.0 6.0 0.00 0.00 0.00 74 1020.0
20260830144515 81 89 2.0 7.0 0.00 0.00 0.00 73 1020.2
20260830143012 79 79 1.0 3.0 0.00 0.00 0.00 76 1020.0
20260830141509 78 238 0.0 3.0 0.00 0.00 0.00 80 1019.9
20260830140007 78 98 0.0 4.0 0.00 0.00 0.00 81 1020.0
20260830134513 77 108 0.0 6.0 0.00 0.00 0.00 83 1020.0
20260830133002 77 80 4.0 7.0 0.00 0.00 0.00 83 1020.0
20260830131609 76 89 2.0 5.0 0.00 0.00 0.00 85 1020.0
20260830130058 75 70 1.0 2.0 0.00 0.00 0.00 86 1019.9
20260830124551 74 54 1.0 3.0 0.00 0.00 0.00 90 1019.8
20260830123054 72 46 1.0 3.0 0.00 0.00 0.00 93 1019.6
20260830121544 71 50 1.0 3.0 0.00 0.00 0.00 95 1019.6
20260830120044 69 77 0.0 2.0 0.00 0.00 0.00 95 1019.5
20260830114546 68 233 0.0 0.0 0.00 0.00 0.00 95 1019.4
20260830113045 68 233 0.0 0.0 0.00 0.00 0.00 95 1019.3
20260830111538 67 233 0.0 0.0 0.00 0.00 0.00 95 1018.8
20260830110044 68 233 0.0 2.0 0.00 0.00 0.00 96 1018.6
20260830104538 67 233 0.0 2.0 0.00 0.00 0.00 95 1018.7
20260830103035 68 233 0.0 1.0 0.00 0.00 0.00 95 1018.6
20260830101536 68 233 0.0 0.0 0.00 0.00 0.00 95 1018.6
20260830100032 68 233 0.0 1.0 0.00 0.00 0.00 95 1018.4
20260830094531 68 233 0.0 2.0 0.00 0.00 0.00 95 1018.5
20260830093031 68 233 0.0 2.0 0.00 0.00 0.00 95 1018.4
20260830091529 69 283 2.0 4.0 0.00 0.00 0.00 95 1018.3
20260830090028 69 263 1.0 2.0 0.00 0.00 0.00 95 1018.3
20260830084528 69 263 0.0 2.0 0.00 0.00 0.00 95 1018.4
20260830083028 69 263 0.0 2.0 0.00 0.00 0.00 95 1018.3
20260830081526 69 263 0.0 1.0 0.00 0.00 0.00 94 1018.3
20260830080026 69 263 0.0 0.0 0.00 0.00 0.00 95 1018.1
20260830074531 70 263 0.0 1.0 0.00 0.00 0.00 94 1018.1
20260830073023 70 263 0.0 0.0 0.00 0.00 0.00 94 1018.0
20260830071540 69 263 0.0 0.0 0.00 0.00 0.00 94 1018.1
20260830070024 70 263 1.0 4.0 0.00 0.00 0.00 93 1018.1
20260830064521 70 273 1.0 3.0 0.00 0.00 0.00 94 1018.0
20260830063020 70 4 0.0 1.0 0.00 0.00 0.00 94 1017.9
20260830061518 70 4 0.0 2.0 0.00 0.00 0.00 94 1018.0
20260830060019 70 4 0.0 0.0 0.00 0.00 0.00 93 1018.0
20260830054523 71 4 0.0 1.0 0.00 0.00 0.00 93 1018.0
20260830053013 71 4 0.0 2.0 0.00 0.00 0.00 92 1018.2
20260830051518 72 4 0.0 2.0 0.00 0.00 0.00 91 1018.2
20260830050008 72 4 0.0 2.0 0.00 0.00 0.00 92 1018.3